This demonstration page uses our WeatherBlox Daily Observations layout. Learn more.

Left ArrowRight Arrow

39.01783, -85.05884

Hourly Observations for March 22, 2021

Temp ( °F °C ) Dew Point ( °F °C ) Humidity (%) Winds ( mph kmh ) Pressure ( in mb ) Visibility ( mi km ) Precip ( " mm )
12:52 am 00:52 Partly Cloudy 51 10.6 33 0.6 50 50 ENE 3 6 30.22 1024 10 16 0.00 0.00
1:52 am 01:52 Partly Cloudy 50 10 32 0 50 50 Calm 30.22 1023 10 16 0.00 0.00
2:52 am 02:52 Partly Cloudy 47 8.3 32 0 56 56 Calm 30.22 1023 10 16 0.00 0.00
4:24 am 04:24 Partly Cloudy 49 9.4 32 0 52 52 ESE 5 7 30.23 1024 10 16 0.00 0.00
4:52 am 04:52 Partly Cloudy 50 10 32 0 50 50 SE 6 9 30.20 1023 10 16 0.00 0.00
5:52 am 05:52 Partly Cloudy 46 7.8 33 0.6 61 61 SSE 8 13 30.20 1023 10 16 0.00 0.00
6:52 am 06:52 Mostly Clear 46 7.8 34 1.1 63 63 S 7 11 30.22 1023 10 16 0.00 0.00
7:52 am 07:52 Mostly Sunny 45 7.2 34 1.1 66 66 SSE 7 11 30.23 1024 10 16 0.00 0.00
8:52 am 08:52 Partly Cloudy 49 9.4 38 3.3 66 66 S 8 13 30.24 1024 10 16 0.00 0.00
9:52 am 09:52 Mostly Cloudy 56 13.3 39 3.9 53 53 SSE 12 19 30.23 1024 10 16 0.00 0.00
10:52 am 10:52 Mostly Cloudy 61 16.1 40 4.4 46 46 S 9 15 30.22 1023 10 16 0.00 0.00
11:52 am 11:52 Mostly Cloudy 65 18.3 42 5.6 43 43 SSW 10 17 30.22 1023 10 16 0.00 0.00
12:52 pm 12:52 Mostly Cloudy 66 18.9 42 5.6 42 42 SSW 9 15 30.19 1022 10 16 0.00 0.00
1:52 pm 13:52 Mostly Cloudy 66 18.9 41 5 40 40 S 9 15 30.16 1022 10 16 0.00 0.00
2:52 pm 14:52 Mostly Cloudy 68 20 39 3.9 35 35 S 9 15 30.11 1020 10 16 0.00 0.00
3:52 pm 15:52 Mostly Cloudy 68 20 39 3.9 35 35 S 12 19 30.09 1019 10 16 0.00 0.00
4:52 pm 16:52 Mostly Cloudy 68 20 37 2.8 32 32 S 13 20 30.06 1018 10 16 0.00 0.00
5:52 pm 17:52 Cloudy 66 18.9 38 3.3 36 36 SSE 9 15 30.06 1018 10 16 0.00 0.00
6:52 pm 18:52 Mostly Cloudy 66 18.9 37 2.8 34 34 S 10 17 30.05 1018 10 16 0.00 0.00
7:52 pm 19:52 Mostly Cloudy 62 16.7 37 2.8 40 40 SE 9 15 30.05 1018 10 16 0.00 0.00
8:52 pm 20:52 Partly Cloudy 61 16.1 37 2.8 41 41 SSE 3 6 30.05 1018 10 16 0.00 0.00
9:52 pm 21:52 Mostly Cloudy 55 12.8 37 2.8 51 51 Calm 30.05 1018 10 16 0.00 0.00
10:52 pm 22:52 Partly Cloudy 54 12.2 37 2.8 53 53 Calm 30.06 1018 10 16 0.00 0.00
11:52 pm 23:52 Partly Cloudy 52 11.1 36 2.2 55 55 ENE 3 6 30.05 1018 10 16 0.00 0.00

Powered by AerisWeather